INTELSAT 35E (IS-35E)

Last updated on Fri Oct 11 2024 00:02:41 GMT+0000 (Coordinated Universal Time)

1 42818U 17041A 24283.68137455 -.00000231 00000+0 00000+0 0 9999 2 42818 0.0155 159.2113 0001910 10.5509 59.8297 1.00270826 26643
UTC large
Height (km)
Speed (km/s)
/
Latitude / Longitude
Inclination (degrees)
Orbital Period (minutes)
Azimuth
Elevation
Range (km)
Doppler Factor

Next 0 passes for location: London (51.5072 / 0.1276)

Sorry there are no passes over London.